Heber, UT

5:38 AM MDT on April 23, 2017 (GMT -0600)
Heber

Weather History for K36U - April, 2013

Change the Weather History Date:

Wednesday, April 17, 2013

  Actual Average (KPVU) Record (KPVU)
Temperature  
Mean Temperature 32 °F -  
Max Temperature 41 °F 57 °F 81 °F (1987)
Min Temperature 23 °F 35 °F 24 °F (2008)
Degree Days  
Heating Degree Days 33    
Moisture  
Dew Point 15 °F    
Average Humidity 53    
Maximum Humidity 69    
Minimum Humidity 33    
Precipitation  
Precipitation 0.00 in - - ()
Sea Level Pressure  
Sea Level Pressure 29.99 in    
Wind  
Wind Speed 11 mph (NNE)    
Max Wind Speed 23 mph    
Max Gust Speed 28 mph    
Visibility 10 miles    
Events      
Averages and records for this station are not official NWS values.
T = Trace of Precipitation, MM = Missing Value Source: NWS Daily Summary

Daily Weather History Graph

Daily Weather History Graph

Search for Another Location

Airport or City:

Trip Planner

Search our weather history database for the weather conditions in past years. The results will help you decide how hot, cold, wet, or windy it might be!

Date:

Astronomy

Apr. 17, 2013 Rise Set
Actual Time 6:43 AM MDT 8:07 PM MDT
Civil Twilight 6:15 AM MDT 8:35 PM MDT
Nautical Twilight 5:41 AM MDT 9:10 PM MDT
Astronomical Twilight 5:05 AM MDT 9:46 PM MDT
Moon 12:00 PM MDT (4/17) 1:47 AM MDT (4/17)
Length of Visible Light 14h 20m
Length of Day
13h 23m
Waxing Crescent, 43% of the Moon is Illuminated
Apr 17
Waxing Crescent
Apr 18
First Quarter
Apr 25
Full
May 2
Last Quarter
May 9
New

Hourly Weather History & Observations

Time (MDT) Temp. Windchill Dew Point Humidity Pressure Visibility Wind Dir Wind Speed Gust Speed Precip Events Conditions
12:15 AM 30.2 °F 25.4 °F 17.6 °F 60% 29.91 in 10.0 mi ENE 4.6 mph - N/A   Clear
12:55 AM 28.4 °F 19.1 °F 17.6 °F 64% 29.90 in 10.0 mi NNE 10.4 mph - N/A   Clear
1:15 AM 28.4 °F 16.2 °F 17.6 °F 64% 29.90 in 10.0 mi NNE 17.3 mph - N/A   Clear
1:35 AM 28.4 °F 16.6 °F 17.6 °F 64% 29.91 in 10.0 mi NNE 16.1 mph - N/A   Clear
1:55 AM 28.4 °F 17.0 °F 17.6 °F 64% 29.91 in 10.0 mi NE 15.0 mph 20.7 mph N/A   Clear
2:15 AM 28.4 °F 16.6 °F 15.8 °F 59% 29.91 in 10.0 mi NNE 16.1 mph 19.6 mph N/A   Scattered Clouds
2:35 AM 28.4 °F 16.6 °F 15.8 °F 59% 29.91 in 10.0 mi NE 16.1 mph 20.7 mph N/A   Mostly Cloudy
2:55 AM 28.4 °F 16.6 °F 14.0 °F 55% 29.91 in 10.0 mi NE 16.1 mph - N/A   Overcast
3:15 AM 28.4 °F 17.5 °F 15.8 °F 59% 29.91 in 10.0 mi NNE 13.8 mph 20.7 mph N/A   Overcast
3:35 AM 26.6 °F 14.7 °F 14.0 °F 59% 29.91 in 10.0 mi NE 15.0 mph 23.0 mph N/A   Overcast
3:55 AM 26.6 °F 15.7 °F 14.0 °F 59% 29.91 in 10.0 mi NE 12.7 mph - N/A   Overcast
4:15 AM 26.6 °F 16.8 °F 14.0 °F 59% 29.91 in 10.0 mi NE 10.4 mph - N/A   Overcast
4:35 AM 26.6 °F 13.8 °F 14.0 °F 59% 29.91 in 10.0 mi NE 17.3 mph 20.7 mph N/A   Mostly Cloudy
4:55 AM 26.6 °F 16.8 °F 12.2 °F 55% 29.92 in 10.0 mi NE 10.4 mph - N/A   Scattered Clouds
5:15 AM 24.8 °F 14.6 °F 12.2 °F 59% 29.92 in 10.0 mi NNE 10.4 mph - N/A   Clear
5:35 AM 24.8 °F 16.1 °F 12.2 °F 59% 29.92 in 10.0 mi NE 8.1 mph - N/A   Clear
5:55 AM 24.8 °F 14.0 °F 12.2 °F 59% 29.92 in 10.0 mi NNE 11.5 mph 21.9 mph N/A   Scattered Clouds
6:15 AM 24.8 °F 14.6 °F 12.2 °F 59% 29.92 in 10.0 mi NE 10.4 mph - N/A   Scattered Clouds
6:35 AM 24.8 °F 15.3 °F 12.2 °F 59% 29.92 in 10.0 mi ENE 9.2 mph - N/A   Clear
6:55 AM 23.0 °F 14.7 °F 14.0 °F 68% 29.93 in 10.0 mi NE 6.9 mph - N/A   Clear
7:15 AM 23.0 °F 14.7 °F 14.0 °F 68% 29.93 in 10.0 mi NE 6.9 mph - N/A   Clear
7:35 AM 24.8 °F 15.3 °F 14.0 °F 64% 29.94 in 10.0 mi ESE 9.2 mph - N/A   Clear
7:55 AM 26.6 °F 16.8 °F 14.0 °F 59% 29.94 in 10.0 mi East 10.4 mph - N/A   Clear
8:15 AM 26.6 °F 17.5 °F 14.0 °F 59% 29.95 in 10.0 mi NNE 9.2 mph - N/A   Clear
8:35 AM 26.6 °F 18.2 °F 12.2 °F 55% 29.96 in 10.0 mi NNE 8.1 mph - N/A   Clear
8:55 AM 28.4 °F 19.1 °F 14.0 °F 55% 29.96 in 10.0 mi North 10.4 mph - N/A   Clear
9:15 AM 28.4 °F 18.0 °F 12.2 °F 51% 29.96 in 10.0 mi NE 12.7 mph - N/A   Clear
9:35 AM 30.2 °F 20.8 °F 14.0 °F 51% 29.96 in 10.0 mi NNE 11.5 mph 18.4 mph N/A   Scattered Clouds
9:55 AM 32.0 °F 21.6 °F 14.0 °F 48% 29.96 in 10.0 mi NE 15.0 mph 19.6 mph N/A   Clear
10:15 AM 32.0 °F 25.6 °F 14.0 °F 48% 29.96 in 10.0 mi NW 6.9 mph - N/A   Clear
10:35 AM 33.8 °F 23.5 °F 14.0 °F 44% 29.96 in 10.0 mi NNE 16.1 mph 19.6 mph N/A   Clear
10:55 AM 33.8 °F 23.9 °F 14.0 °F 44% 29.97 in 10.0 mi NNE 15.0 mph - N/A   Clear
11:15 AM 35.6 °F 25.2 °F 14.0 °F 41% 29.97 in 10.0 mi North 18.4 mph 24.2 mph N/A   Clear
11:35 AM 35.6 °F 24.2 °F 14.0 °F 41% 29.97 in 10.0 mi North 21.9 mph 26.5 mph N/A   Clear
11:55 AM 35.6 °F 25.5 °F 12.2 °F 38% 29.98 in 10.0 mi North 17.3 mph 25.3 mph N/A   Clear
12:15 PM 35.6 °F 25.5 °F 12.2 °F 38% 29.98 in 10.0 mi North 17.3 mph 24.2 mph N/A   Clear
12:35 PM 37.4 °F 27.5 °F 14.0 °F 38% 29.99 in 10.0 mi North 18.4 mph 24.2 mph N/A   Scattered Clouds
12:55 PM 37.4 °F 27.2 °F 14.0 °F 38% 29.99 in 10.0 mi North 19.6 mph 25.3 mph N/A   Mostly Cloudy
1:15 PM 35.6 °F 29.2 °F 12.2 °F 38% 29.99 in 10.0 mi North 8.1 mph 21.9 mph N/A   Mostly Cloudy
1:35 PM 35.6 °F 26.2 °F 12.2 °F 38% 29.99 in 10.0 mi North 15.0 mph 26.5 mph N/A   Overcast
1:55 PM 35.6 °F 25.2 °F 12.2 °F 38% 29.99 in 10.0 mi NNE 18.4 mph 24.2 mph N/A   Overcast
2:55 PM 37.4 °F 29.3 °F 14.0 °F 38% 30.00 in 10.0 mi North 12.7 mph 20.7 mph N/A   Mostly Cloudy
3:15 PM 37.4 °F 29.3 °F 12.2 °F 36% 30.00 in 10.0 mi NNE 12.7 mph 20.7 mph N/A   Mostly Cloudy
3:35 PM 35.6 °F 24.0 °F 19.4 °F 52% 30.00 in 10.0 mi NW 23.0 mph 27.6 mph N/A   Overcast
3:55 PM 39.2 °F 32.0 °F 19.4 °F 45% 30.01 in 10.0 mi NW 11.5 mph - N/A   Mostly Cloudy
4:15 PM 35.6 °F 24.2 °F 19.4 °F 52% 30.01 in 10.0 mi NNE 21.9 mph 27.6 mph N/A   Mostly Cloudy
4:35 PM 37.4 °F 31.4 °F 21.2 °F 52% 30.02 in 10.0 mi NNE 8.1 mph - N/A   Overcast
4:55 PM 41.0 °F 35.2 °F 14.0 °F 33% 30.02 in 10.0 mi WNW 9.2 mph 19.6 mph N/A   Scattered Clouds
5:15 PM 41.0 °F 37.1 °F 15.8 °F 36% 30.02 in 10.0 mi NNW 5.8 mph 9.2 mph N/A   Scattered Clouds
5:35 PM 39.2 °F 31.6 °F 15.8 °F 39% 30.03 in 10.0 mi NW 12.7 mph - N/A   Scattered Clouds
5:55 PM 33.8 °F 25.3 °F 23.0 °F 65% 30.04 in 10.0 mi WNW 11.5 mph 25.3 mph N/A   Mostly Cloudy
6:15 PM 35.6 °F 29.9 °F 21.2 °F 56% 30.05 in 10.0 mi West 6.9 mph - N/A   Scattered Clouds
6:35 PM 33.8 °F 24.3 °F 21.2 °F 60% 30.06 in 10.0 mi NNW 13.8 mph 21.9 mph N/A   Scattered Clouds
6:55 PM 33.8 °F 26.4 °F 19.4 °F 56% 30.06 in 10.0 mi NW 9.2 mph - N/A   Scattered Clouds
7:15 PM 32.0 °F 25.6 °F 19.4 °F 60% 30.07 in 10.0 mi NW 6.9 mph - N/A   Clear
7:35 PM 32.0 °F 28.7 °F 17.6 °F 55% 30.07 in 10.0 mi NNW 3.5 mph - N/A   Clear
7:55 PM 32.0 °F - 17.6 °F 55% 30.07 in 10.0 mi Calm Calm - N/A   Clear
8:15 PM 32.0 °F 25.6 °F 17.6 °F 55% 30.09 in 10.0 mi NNE 6.9 mph - N/A   Clear
8:35 PM 32.0 °F - 17.6 °F 55% 30.09 in 10.0 mi Calm Calm - N/A   Scattered Clouds
8:55 PM 32.0 °F 25.6 °F 15.8 °F 51% 30.10 in 10.0 mi NNE 6.9 mph - N/A   Scattered Clouds
9:15 PM 30.2 °F - 17.6 °F 60% 30.11 in 10.0 mi Calm Calm - N/A   Scattered Clouds
9:35 PM 30.2 °F 22.6 °F 14.0 °F 51% 30.12 in 10.0 mi NNE 8.1 mph - N/A   Scattered Clouds
9:55 PM 30.2 °F 23.4 °F 14.0 °F 51% 30.12 in 10.0 mi NNE 6.9 mph - N/A   Mostly Cloudy
10:35 PM 28.4 °F 23.3 °F 14.0 °F 55% 30.13 in 10.0 mi ENE 4.6 mph - N/A   Clear
10:55 PM 26.6 °F 21.2 °F 14.0 °F 59% 30.14 in 10.0 mi ENE 4.6 mph - N/A   Scattered Clouds
11:15 PM 30.2 °F 26.7 °F 12.2 °F 47% 30.14 in 10.0 mi NE 3.5 mph - N/A   Mostly Cloudy
11:35 PM 24.8 °F 19.1 °F 15.8 °F 69% 30.14 in 10.0 mi SE 4.6 mph - N/A   Scattered Clouds
11:55 PM 24.8 °F 19.1 °F 14.0 °F 64% 30.14 in 10.0 mi SE 4.6 mph - N/A   Scattered Clouds